GFSWCAN_925_rhum_009.txt.gz
RH
100 99 100 100 96 94 94 94 90 91 93 90 86 84 84 85 78 73 79 82 82 97 93 64 60 68 69 73 90 74 78 86 99 100 100 99 96 93 81 62 65 79 90 98 98 99 94 52 49 72 64 65 56 68
98 98 100 98 98 97 91 90 94 92 90 92 92 90 88 88 86 84 79 85 87 89 89 82 72 67 68 64 78 76 77 76 92 99 98 100 100 100 97 91 54 81 72 83 82 81 60 49 53 52 52 60 69 75
100 100 99 99 99 100 100 94 94 93 91 92 91 88 90 90 88 88 87 87 89 100 95 88 86 59 58 59 60 92 96 70 82 80 98 100 100 100 99 98 86 70 66 83 78 60 54 55 52 53 56 66 77 79
91 95 98 100 97 100 99 100 96 92 90 87 86 88 91 92 94 91 92 90 95 99 100 92 67 71 59 58 60 66 66 65 77 95 100 100 100 93 99 87 87 82 79 81 80 66 61 58 60 60 73 84 83 70
87 87 89 86 88 90 93 89 86 94 93 93 87 88 87 89 93 94 98 98 98 93 100 99 82 62 63 63 64 63 69 84 99 100 100 100 100 98 100 97 98 75 72 85 87 62 71 68 63 63 74 69 63 61
88 81 82 84 82 80 80 81 90 93 99 98 96 97 99 95 98 100 99 98 98 100 100 100 83 79 64 60 66 65 71 84 90 100 100 99 83 90 100 90 64 53 56 60 72 62 60 69 58 60 61 55 44 60
82 86 86 90 86 80 74 73 76 82 91 92 92 98 99 100 100 100 95 90 96 100 100 100 100 91 76 71 74 78 71 87 93 100 100 100 99 96 100 96 66 60 59 58 55 58 69 57 51 42 39 38 38 63
79 84 95 94 88 83 81 82 84 84 86 95 100 100 100 100 100 100 100 95 100 99 99 100 100 99 79 98 100 94 99 100 100 100 100 100 97 100 100 79 67 59 55 53 51 49 49 44 42 39 38 41 50 74
80 89 98 94 90 90 85 83 84 93 99 98 100 100 99 97 99 100 100 100 100 94 100 100 100 99 79 98 99 99 99 100 99 100 100 98 100 98 94 80 63 57 54 50 46 46 47 49 48 47 46 47 60 77
80 85 90 94 86 95 97 92 100 99 100 97 86 85 100 100 99 95 94 99 100 100 100 99 99 100 85 100 100 100 100 100 99 92 93 100 92 64 56 53 54 48 44 48 54 52 49 54 53 51 54 57 74 82
84 85 91 90 86 85 95 97 99 88 83 82 97 100 100 100 99 97 99 99 100 99 99 99 99 100 92 99 100 100 100 100 99 92 97 98 95 70 54 53 45 42 39 40 45 43 40 44 45 52 68 70 74 86
89 93 93 92 90 85 92 99 96 91 89 85 84 88 92 100 100 99 98 98 98 97 99 99 97 95 100 100 100 100 99 100 90 89 94 86 82 50 49 45 48 51 51 51 43 46 45 46 50 64 73 75 81 93
94 96 94 92 91 86 88 90 84 88 85 77 85 100 98 99 100 99 98 99 99 100 96 99 100 99 100 99 100 97 100 95 96 98 81 88 66 55 55 57 53 53 53 52 54 52 53 61 63 71 78 78 93 97
99 99 100 95 92 88 90 84 78 83 80 97 95 100 94 92 93 94 97 98 100 100 100 99 100 100 97 89 89 94 92 96 98 90 88 88 70 62 58 62 57 60 70 65 65 65 68 70 73 72 79 84 100 99
100 100 100 100 94 89 86 78 78 82 88 96 95 93 98 94 98 99 100 99 100 97 98 96 99 95 98 96 97 92 90 82 91 87 93 89 64 60 60 56 53 70 79 82 67 71 68 65 76 88 89 91 91 88
99 100 99 95 96 97 81 82 88 81 98 88 90 93 96 97 99 96 99 100 100 95 97 96 93 91 89 95 97 94 92 86 84 89 91 68 64 63 63 67 61 60 67 66 63 64 67 70 79 84 87 90 92 97
90 96 97 94 91 95 98 97 77 97 93 95 96 100 100 98 97 99 99 94 82 95 94 95 86 82 87 93 94 86 87 85 90 90 88 64 65 66 66 62 58 60 63 57 56 62 69 67 88 92 87 85 94 100
91 90 98 98 98 98 97 84 90 93 93 94 93 95 92 92 94 95 83 95 97 95 90 84 86 82 82 80 80 80 90 91 88 86 85 66 64 60 53 64 56 56 58 59 60 66 69 89 88 82 86 94 100 98
76 80 95 97 96 77 83 89 83 89 89 89 88 92 95 96 90 78 92 87 88 74 89 91 87 94 79 86 82 84 89 90 84 76 69 58 55 58 58 59 60 64 64 64 67 66 76 85 84 87 99 100 98 94
92 91 92 97 84 81 96 96 76 93 93 89 90 91 93 94 97 98 98 91 93 94 98 98 94 77 90 83 85 89 84 76 77 78 71 63 60 61 63 63 64 64 67 67 68 70 83 83 89 97 100 100 99 96
89 88 94 96 98 96 85 92 84 86 90 88 90 90 92 94 97 96 97 83 93 93 94 82 68 60 56 56 55 57 61 60 66 74 76 77 58 60 65 67 69 69 78 84 85 83 94 98 99 100 100 99 99 99
96 94 99 100 98 93 87 69 88 86 91 89 84 88 89 93 96 97 95 99 93 86 76 64 61 65 66 68 60 56 56 54 56 58 54 58 77 76 78 78 84 87 84 83 84 97 98 99 100 100 100 99 99 90
85 80 94 96 87 88 81 72 86 83 92 89 89 85 91 92 90 89 94 92 88 65 60 64 61 58 64 59 56 55 51 52 61 63 63 69 75 79 82 86 92 99 97 91 99 100 100 99 100 100 99 98 92 91
81 94 97 92 94 93 89 93 89 88 87 88 90 84 83 89 90 91 94 90 65 59 70 67 61 67 66 62 77 66 54 51 57 59 60 81 96 88 86 96 98 96 100 100 100 100 100 100 99 98 94 97 91 89
97 97 97 96 96 85 97 96 91 90 88 89 85 84 85 88 87 91 86 66 83 85 80 72 76 88 87 91 80 60 50 54 65 88 82 85 86 85 87 92 98 95 92 100 100 99 99 99 99 96 94 93 93 96
97 95 95 87 93 93 90 89 91 88 89 83 82 85 87 87 86 87 84 85 89 92 97 97 96 95 91 74 84 80 62 78 86 93 85 83 88 96 97 97 97 86 81 100 100 100 100 100 100 99 95 95 95 95
96 97 95 90 85 85 87 86 84 86 85 86 89 87 85 93 92 78 79 82 85 55 53 56 66 72 74 58 58 66 86 93 96 89 86 87 92 96 98 98 97 96 89 97 100 98 98 100 99 98 95 93 92 85
91 87 95 90 88 88 89 87 88 87 86 86 82 77 78 79 78 78 83 53 48 48 48 48 48 48 54 64 76 89 82 84 89 88 91 79 71 73 87 99 100 99 99 99 99 98 98 99 100 98 89 88 86 84
97 89 87 89 87 88 88 86 86 85 81 85 80 81 76 78 76 84 60 64 67 70 76 82 77 77 81 86 85 83 86 81 98 97 93 95 94 87 93 88 94 98 100 99 99 99 99 99 98 97 91 88 77 84
92 89 90 86 88 88 83 85 84 86 88 77 71 81 81 77 66 63 65 70 78 84 85 92 97 95 94 95 88 83 82 94 100 100 98 98 97 93 95 99 100 100 99 99 99 98 96 98 99 99 98 98 98 97
86 90 86 82 78 70 71 70 74 83 88 84 80 84 80 78 69 70 87 99 100 100 98 96 95 97 99 99 99 98 96 98 92 94 95 96 100 99 93 98 100 99 98 96 96 97 97 97 97 97 96 96 96 96
92 89 84 82 77 73 87 90 87 86 83 89 87 84 85 86 90 97 97 94 95 96 99 98 97 98 97 94 98 99 98 96 94 96 97 98 98 99 98 99 99 98 96 94 95 95 95 96 97 96 96 96 96 96
88 84 81 85 95 89 87 86 88 88 84 82 80 83 84 88 92 97 97 96 98 97 97 96 96 94 98 97 98 98 94 95 96 96 97 97 97 96 96 96 96 96 97 98 97 96 97 96 96 97 97 96 96 96

GFSWCAN_925_rhum_015.txt.gz
RH
100 100 100 95 89 88 90 94 95 92 91 90 85 81 79 75 69 70 85 77 66 95 89 78 68 72 78 81 88 76 80 88 99 99 98 95 94 88 91 71 77 75 86 95 98 100 93 56 57 72 71 62 67 73
100 99 100 100 96 95 92 92 95 96 95 90 88 86 82 81 77 72 78 82 77 76 76 87 81 72 66 62 82 83 76 81 92 99 98 99 98 98 90 93 66 80 70 81 79 80 61 56 59 61 60 72 75 88
97 98 100 100 95 97 97 94 95 95 96 96 93 91 89 88 86 79 82 83 75 100 92 86 80 61 66 67 64 89 94 78 88 84 97 100 100 100 98 94 82 80 72 88 77 64 57 61 57 55 64 78 86 84
91 100 99 100 98 94 97 98 97 99 96 94 94 94 93 93 92 91 87 84 80 99 100 93 68 70 60 63 67 67 66 76 85 97 100 100 100 92 100 86 96 86 85 88 84 72 72 65 68 74 86 88 80 81
93 98 100 100 100 100 97 99 97 98 99 99 99 96 95 96 100 99 98 92 87 88 100 99 76 63 60 64 66 70 75 88 100 100 100 100 99 99 100 99 100 89 84 88 90 66 71 69 84 86 84 84 79 75
94 96 100 100 100 100 100 100 100 100 96 96 99 100 100 100 100 99 99 92 93 94 100 100 87 80 74 76 78 82 88 93 96 100 100 99 86 93 100 99 68 61 66 65 74 62 72 85 79 78 73 68 69 69
89 89 92 95 94 94 98 100 100 100 100 100 100 100 100 100 100 97 93 80 95 99 100 100 100 87 80 79 87 89 89 94 96 100 100 99 96 95 100 95 65 64 68 74 68 71 88 86 96 81 71 65 66 62
89 94 95 93 90 83 80 86 93 99 100 100 100 100 100 100 100 100 94 91 100 98 100 100 100 97 82 98 100 100 100 100 100 100 100 99 99 100 100 77 71 70 70 68 72 69 70 71 61 52 48 50 62 66
92 98 94 90 87 84 80 76 75 89 100 100 100 100 99 98 99 99 100 97 100 99 100 100 100 100 91 99 99 99 100 100 100 100 100 99 100 99 93 84 78 77 72 71 65 65 65 54 58 61 59 50 53 60
94 100 99 94 92 90 92 92 98 100 100 100 97 93 100 100 99 98 99 100 100 100 100 100 99 100 93 100 100 100 100 100 100 99 94 100 98 78 72 73 70 68 68 70 78 94 82 68 71 65 56 54 66 77
91 98 96 93 97 100 100 100 100 100 93 76 98 100 100 99 91 97 100 100 100 100 99 98 99 100 96 99 100 100 100 99 99 92 100 98 98 82 70 68 68 63 62 65 63 65 62 54 58 66 73 71 72 77
84 93 91 86 95 100 95 93 90 86 81 79 93 96 93 97 100 98 99 99 99 95 99 98 97 96 100 99 100 100 99 99 97 93 98 97 85 69 72 77 73 61 58 57 54 56 54 58 62 69 71 67 68 68
90 96 91 86 93 96 96 86 77 80 74 67 79 99 96 98 97 98 99 98 99 98 99 100 99 100 100 99 99 98 98 97 98 98 95 88 77 69 65 62 60 53 54 56 52 50 53 60 59 67 72 65 66 76
93 99 95 89 94 94 90 86 84 79 53 88 86 100 88 98 93 95 95 94 96 100 97 100 99 98 97 94 95 94 90 98 98 98 96 88 71 63 61 59 60 57 63 64 60 57 60 66 69 64 66 64 70 78
84 95 92 92 99 86 93 87 76 59 61 93 80 79 97 91 94 99 100 100 99 99 94 98 98 96 99 97 92 91 96 95 86 92 93 89 69 64 61 64 66 76 73 73 64 70 71 69 73 73 64 65 70 77
90 98 98 89 97 86 82 82 69 52 96 91 91 97 97 95 99 97 99 99 99 95 93 93 95 92 93 94 95 99 99 96 86 94 90 73 65 67 68 73 68 64 69 71 70 71 70 72 76 74 72 74 75 82
96 97 99 97 93 86 82 74 64 94 94 90 93 97 97 97 96 96 97 98 92 90 85 96 93 66 87 98 100 93 94 88 91 90 93 74 72 70 68 68 70 71 72 70 72 72 75 74 76 83 89 80 78 86
87 100 98 92 87 86 93 73 84 90 96 98 95 93 100 98 94 95 99 99 94 91 93 87 88 89 94 93 92 89 92 93 93 91 88 82 71 68 69 76 69 67 71 72 71 72 79 83 88 89 84 84 91 99
96 96 98 97 89 78 94 95 78 88 90 96 97 98 96 94 96 94 93 94 92 84 89 93 91 94 90 89 85 88 92 94 89 67 71 64 63 65 64 64 67 72 74 72 76 82 86 89 91 91 96 95 98 100
99 100 98 80 64 72 96 96 89 92 92 89 96 96 95 94 98 97 99 98 97 98 99 98 95 90 87 84 84 85 88 80 93 86 71 69 63 65 69 71 78 75 76 82 90 93 86 88 89 91 98 100 100 98
100 100 99 77 74 79 87 98 96 94 96 91 96 93 92 98 99 100 94 88 99 98 97 94 90 81 72 68 66 64 70 72 79 84 76 77 68 69 75 77 73 77 91 98 87 83 92 94 88 99 100 100 100 100
100 98 98 84 84 82 92 85 88 92 91 93 92 96 96 96 100 99 98 98 98 91 86 75 68 69 74 76 63 61 57 58 66 73 76 79 90 83 79 71 82 96 95 89 87 91 94 98 98 100 100 100 99 99
94 75 88 91 90 83 77 88 89 88 94 92 95 90 94 97 95 96 99 95 94 81 63 71 66 64 69 65 65 64 64 72 81 80 80 79 75 72 76 77 89 94 88 86 88 89 97 99 100 100 100 100 99 99
70 77 95 96 92 94 94 77 96 96 96 95 99 100 93 98 96 100 98 96 87 80 88 73 72 79 77 78 88 76 68 66 72 72 67 74 83 73 78 86 85 86 87 81 91 98 100 100 100 100 99 99 98 98
80 95 86 90 92 93 96 100 97 99 98 98 98 97 87 95 94 100 96 87 89 86 73 67 76 86 88 86 82 69 58 69 75 84 51 60 76 90 87 83 88 86 82 89 99 99 100 100 100 99 99 99 99 98
99 97 89 88 91 94 93 100 100 99 99 99 98 94 97 94 92 84 84 87 85 82 82 77 84 91 94 87 91 82 52 44 53 80 66 82 88 91 94 92 85 88 86 94 100 100 99 97 99 100 98 92 94 99
100 99 98 89 91 91 97 98 95 96 100 95 91 94 93 90 93 82 85 79 81 37 37 44 50 62 68 52 48 52 56 63 68 81 89 91 87 83 89 98 96 96 91 97 100 100 100 99 100 100 99 97 99 99
94 98 94 100 100 95 90 98 94 94 88 90 93 93 83 86 82 80 80 35 38 46 49 49 52 55 59 64 71 84 92 95 98 92 91 84 78 81 91 93 87 85 86 89 98 99 99 99 100 100 99 99 98 97
94 90 92 100 96 97 94 90 89 87 86 89 89 88 80 82 74 60 38 37 41 58 71 73 72 77 83 80 88 99 100 99 99 99 96 93 96 81 84 82 94 98 100 99 91 94 94 95 95 97 100 99 98 98
99 93 95 94 96 96 92 92 91 87 92 78 85 84 83 80 48 64 70 78 88 94 96 98 99 100 100 100 96 95 100 100 100 98 97 98 96 96 98 94 94 100 99 99 93 86 82 88 88 89 91 94 97 97
97 97 96 99 95 88 86 87 83 92 94 88 91 81 74 85 92 99 94 98 100 98 95 97 97 96 96 96 97 97 97 97 97 97 96 97 98 98 98 97 99 100 100 99 95 87 87 90 94 95 94 95 96 96
100 99 100 96 90 85 98 97 95 90 84 100 82 97 96 99 100 98 98 91 90 94 95 96 95 94 96 97 98 98 97 96 96 96 96 96 96 96 96 95 94 95 96 100 99 96 91 89 88 95 100 99 98 96
92 98 97 99 98 96 93 86 90 97 98 98 79 81 91 94 96 96 96 95 97 97 96 95 96 96 96 97 97 97 96 96 96 96 96 96 96 95 92 82 76 87 99 99 96 95 93 91 93 96 96 96 96 96

GFSWCAN_925_rhum_021.txt.gz
RH
100 100 100 100 94 88 86 86 88 91 90 92 89 82 73 66 69 61 78 64 54 95 87 82 69 74 77 76 85 82 85 91 97 98 100 98 95 83 80 67 74 70 84 94 96 95 94 54 56 67 59 61 62 67
99 100 99 100 98 90 87 88 88 92 96 95 91 87 82 75 68 64 74 70 63 69 72 86 82 73 63 59 81 88 72 88 92 98 97 97 100 98 86 86 69 81 68 75 76 78 60 55 59 56 59 75 80 81
95 92 90 98 99 99 89 87 92 92 95 97 95 90 86 81 73 65 72 68 61 99 83 78 76 73 73 72 62 83 93 77 86 81 94 98 97 89 99 95 82 72 67 81 73 63 59 61 56 74 88 95 92 92
98 94 85 95 98 99 98 86 89 94 95 95 96 93 90 86 81 74 72 70 64 99 100 87 72 67 70 69 74 71 72 83 90 96 99 100 100 81 95 80 84 71 82 87 86 73 67 68 91 90 91 87 74 63
93 93 90 88 97 99 100 95 90 92 94 96 98 98 95 92 88 82 78 78 73 72 99 97 83 76 68 72 78 81 76 98 99 100 100 100 98 98 100 97 97 88 86 95 89 66 77 92 93 90 90 72 61 62
95 89 87 94 91 98 100 100 97 93 95 97 100 100 99 96 92 86 99 86 85 77 100 100 88 88 79 77 82 90 91 95 98 99 100 99 85 93 100 100 77 71 67 65 71 79 94 93 90 88 68 65 54 53
88 84 84 92 97 96 98 99 100 100 97 98 100 100 100 99 96 88 92 76 98 80 100 100 99 88 82 87 96 94 97 97 97 100 100 100 100 96 100 99 76 73 74 72 74 88 96 93 90 72 50 45 44 45
87 89 89 92 92 92 99 100 100 100 100 100 100 100 100 100 100 100 88 88 95 83 99 100 100 95 84 99 100 100 100 100 100 99 100 100 99 100 100 85 76 71 66 65 62 61 67 59 53 50 49 47 51 52
92 94 92 94 86 85 90 99 100 100 100 100 100 100 99 100 100 98 94 98 100 89 100 100 100 100 94 97 99 100 99 100 99 100 100 99 100 100 86 82 82 82 76 75 69 60 55 53 50 54 54 53 56 58
100 98 96 86 86 73 84 96 100 100 100 100 100 97 100 100 99 99 99 100 100 100 100 100 99 100 95 100 100 100 100 100 100 97 89 100 99 73 74 70 68 71 72 67 61 54 56 58 60 66 62 59 63 64
100 99 98 93 90 84 77 91 100 100 100 98 99 100 100 99 95 97 100 100 100 100 100 99 99 100 97 99 100 100 100 100 100 89 98 96 97 79 74 71 65 60 56 54 54 57 62 66 63 63 65 66 72 74
100 100 96 97 99 100 96 80 99 95 100 98 96 98 95 98 100 100 100 100 100 99 100 99 99 99 100 99 100 100 99 99 97 93 97 95 82 79 75 63 59 61 54 53 51 56 58 60 64 70 70 69 72 73
100 100 92 98 100 100 100 98 90 91 90 95 95 100 100 99 99 96 97 98 98 99 98 100 100 100 99 99 99 99 97 96 94 96 92 82 81 75 68 65 53 51 49 54 57 57 59 63 60 64 73 71 75 83
100 98 92 98 100 94 96 99 89 73 68 93 99 98 97 98 95 93 89 93 94 100 100 99 99 95 97 97 97 96 95 95 95 99 93 88 77 65 63 61 59 53 58 66 65 63 66 69 71 68 71 75 82 89
100 98 99 100 95 98 99 86 64 39 53 84 82 95 96 92 98 98 100 100 99 98 98 98 97 92 99 94 93 95 95 92 89 87 87 85 69 67 64 63 57 70 69 71 66 71 71 71 77 79 74 82 89 89
100 100 100 94 92 84 77 76 68 49 72 84 89 94 96 95 100 99 100 100 99 94 90 90 94 96 96 94 94 92 95 96 81 88 82 74 67 65 66 66 62 60 66 70 72 73 76 77 79 82 85 89 82 87
100 100 98 94 92 84 74 64 61 88 82 77 98 98 94 94 94 96 96 98 88 88 88 88 77 74 88 96 99 88 95 83 82 78 76 74 64 62 61 63 65 65 72 73 74 75 78 76 81 90 94 83 90 95
90 96 96 90 84 75 71 64 73 81 82 99 90 99 99 96 97 98 100 98 92 83 82 79 77 84 86 80 82 84 86 84 82 76 70 71 62 60 62 68 67 68 74 75 74 77 80 83 93 86 91 93 97 94
83 96 99 92 87 75 88 91 75 81 87 94 97 95 94 99 98 100 100 100 89 83 89 89 91 88 84 81 82 79 83 82 67 63 71 61 60 66 64 64 66 73 77 78 81 84 85 90 92 89 86 94 96 95
97 100 97 86 63 67 93 96 82 84 89 90 94 96 96 98 100 100 100 98 92 97 99 100 94 86 82 75 74 72 69 65 75 80 73 75 63 61 64 68 75 77 82 79 76 78 88 92 89 84 79 88 97 94
100 100 96 71 63 67 92 97 94 94 96 93 96 91 98 99 99 100 100 97 96 96 95 92 92 81 68 61 57 58 65 68 78 81 79 75 68 67 72 74 77 80 89 87 90 92 97 96 92 87 81 92 97 100
100 99 82 63 73 79 92 94 92 94 89 93 92 94 99 98 99 98 95 89 83 90 90 88 79 75 77 76 69 67 62 63 69 75 76 78 87 83 84 80 82 86 82 85 96 98 96 92 92 98 100 98 100 97
98 71 68 65 79 87 94 87 90 90 86 92 94 90 95 98 96 93 93 80 86 83 79 77 67 60 66 62 63 64 66 73 82 83 82 82 80 80 84 79 79 90 97 100 88 90 97 93 94 100 100 100 98 98
60 73 89 94 90 100 92 94 95 97 97 97 96 92 89 98 94 95 98 99 90 89 88 75 70 79 75 74 87 74 62 67 73 74 68 80 89 74 63 72 74 76 89 96 90 83 82 89 88 92 89 94 96 96
78 89 87 98 90 96 97 82 93 95 100 100 100 100 94 96 100 99 99 94 90 86 81 69 74 83 84 82 75 60 50 60 69 80 52 60 69 74 78 76 82 89 97 95 92 99 99 90 87 88 96 99 97 96
94 92 83 98 93 90 100 100 98 100 100 100 100 97 98 97 97 91 84 84 85 78 79 69 71 74 78 76 78 68 46 52 63 85 69 72 78 86 96 98 96 92 95 97 96 100 98 99 100 99 99 97 97 100
100 95 85 94 91 92 100 98 96 99 100 100 99 100 98 97 95 80 80 77 77 45 36 36 41 49 60 53 57 59 69 75 76 78 83 95 97 100 100 99 97 98 97 96 96 98 99 99 99 100 99 100 100 100
94 97 93 93 99 95 96 100 100 100 96 91 92 95 89 88 78 78 84 81 78 67 59 55 61 75 77 76 86 88 84 88 93 98 99 98 96 90 97 100 98 97 97 97 97 97 97 96 99 98 100 100 100 100
94 99 98 100 100 100 99 92 94 90 86 88 87 88 82 81 96 100 96 99 94 100 100 100 100 92 88 91 96 100 100 100 100 98 97 94 96 96 96 93 96 97 97 96 96 97 97 96 94 90 96 95 92 91
92 93 98 100 100 99 91 91 93 94 90 86 89 89 89 98 100 98 97 96 97 100 100 98 97 97 97 97 97 94 96 96 96 97 95 95 96 97 96 95 95 96 96 96 96 96 95 93 85 83 90 91 91 91
97 96 98 98 98 94 94 99 95 98 100 98 99 91 87 100 98 94 95 94 96 97 96 96 93 96 97 96 96 96 95 96 96 96 96 96 96 96 96 95 90 82 85 97 100 99 95 90 90 95 96 96 97 96
98 98 100 99 98 94 99 100 100 100 100 98 89 100 100 96 99 97 100 95 95 96 99 100 98 97 96 96 96 96 96 96 95 96 95 96 96 96 94 81 75 78 88 95 96 95 93 93 94 96 97 98 97 98
98 98 98 100 95 77 87 78 89 90 96 97 98 100 100 96 100 97 88 93 99 100 100 99 97 97 96 96 96 96 95 96 96 96 96 96 96 95 88 82 80 84 92 94 94 95 95 95 96 98 99 98 99 100

GFSWCAN_925_rhum_024.txt.gz
RH
99 100 100 99 91 90 86 88 88 84 83 84 80 77 68 66 61 55 68 53 59 79 64 66 57 56 56 51 74 72 71 81 96 99 100 98 98 69 65 50 65 65 98 99 93 98 93 41 46 72 60 55 53 61
99 99 100 100 97 91 88 90 90 90 88 90 85 81 75 67 64 60 77 60 53 66 69 89 88 77 67 48 52 72 60 66 71 94 98 98 99 97 98 76 49 64 52 54 56 57 39 38 47 45 53 63 77 90
92 93 99 100 99 94 90 89 92 92 92 94 92 86 80 73 63 58 65 61 59 95 73 72 72 79 76 75 64 66 76 60 66 67 83 95 96 78 99 86 59 48 46 67 64 48 43 45 46 71 73 88 87 85
89 88 91 99 100 100 95 89 91 94 95 96 94 89 86 80 72 66 65 64 62 91 100 73 69 69 76 80 78 70 66 76 74 76 99 100 99 62 87 68 72 52 49 58 60 56 56 54 71 83 87 85 71 50
88 86 85 91 95 99 99 96 92 94 96 97 96 92 89 85 80 73 71 72 68 71 96 90 76 80 77 80 78 77 70 74 95 100 100 99 81 88 88 91 94 54 56 76 85 64 78 88 92 88 82 57 41 40
88 83 86 92 93 92 96 97 93 90 95 97 98 96 93 89 84 78 78 78 74 66 97 98 81 78 75 76 80 80 75 82 92 94 99 89 71 80 100 99 66 57 54 58 78 70 85 90 88 72 47 42 37 37
86 81 84 92 95 93 91 96 100 92 94 97 99 100 96 95 90 78 74 84 85 69 99 99 97 78 80 77 80 78 91 87 83 99 100 98 94 85 100 98 81 67 60 64 70 78 96 95 88 48 43 39 36 32
90 88 88 91 91 90 95 100 100 100 96 98 98 100 100 100 100 95 84 93 84 84 98 98 98 95 79 95 99 91 98 100 100 99 100 100 98 100 100 80 66 61 61 62 62 64 71 54 46 41 34 31 33 31
93 96 93 89 82 85 87 97 100 100 100 100 100 100 100 100 100 99 90 92 86 81 100 100 100 100 81 94 97 98 95 100 98 100 100 99 100 99 88 73 70 70 65 62 53 45 39 36 29 29 30 30 36 37
97 99 98 90 83 76 86 92 99 100 100 100 100 100 100 100 100 100 99 100 100 100 100 100 96 100 86 99 100 99 100 100 100 97 82 100 99 75 67 63 60 60 59 58 52 34 32 36 34 36 38 40 42 44
97 98 99 95 87 82 83 95 99 100 100 100 99 100 100 100 90 97 100 100 100 100 100 99 99 99 93 99 100 100 100 100 99 86 95 93 87 74 58 51 45 46 40 32 33 33 34 36 40 45 46 47 53 60
93 98 99 95 100 97 85 99 97 97 100 99 97 96 95 97 100 100 100 100 100 100 100 100 99 98 100 99 100 100 100 100 95 77 97 86 67 64 56 49 51 49 36 34 33 35 38 44 50 54 56 56 63 71
94 99 94 96 100 100 80 98 86 94 92 92 93 100 100 100 100 100 98 99 99 98 93 100 100 100 100 98 100 100 100 97 83 95 80 65 67 61 53 44 41 39 43 50 36 39 46 53 57 68 72 70 76 81
89 100 93 100 100 100 98 98 95 94 90 100 100 98 100 99 99 98 96 95 98 100 100 99 100 98 100 100 100 99 94 85 91 88 83 73 67 62 48 45 41 38 47 55 50 51 66 69 74 70 71 72 81 89
86 100 96 100 97 100 92 92 86 56 72 99 99 98 97 96 99 100 100 100 98 96 92 96 96 89 99 98 91 94 95 88 76 73 72 64 64 54 52 51 45 59 71 64 51 59 72 72 79 82 77 81 90 91
88 100 99 98 100 100 94 89 80 64 82 91 91 94 96 98 100 100 100 100 96 97 96 90 96 98 96 90 94 89 82 75 70 74 68 60 57 54 49 48 49 48 54 54 58 65 69 78 85 80 83 87 87 91
97 98 94 94 82 82 78 76 66 92 90 90 93 93 92 98 100 100 100 98 90 96 96 83 86 83 84 89 88 75 83 73 68 71 58 53 52 44 45 52 60 65 62 59 62 65 70 75 84 95 93 77 84 87
100 95 94 94 86 75 70 62 80 83 84 85 84 97 93 92 95 99 99 91 92 77 73 69 61 77 72 73 68 70 70 66 60 52 46 49 52 53 53 52 52 55 59 64 76 81 81 88 84 66 71 71 75 77
98 95 94 89 86 89 89 92 79 76 85 86 90 88 89 97 93 95 97 97 85 74 77 77 82 69 63 56 72 73 73 71 54 44 46 50 54 57 60 58 63 62 62 68 70 69 66 70 75 79 79 78 78 82
100 100 98 95 85 91 97 90 82 68 76 81 83 84 88 91 95 99 100 96 83 99 98 90 77 69 63 54 52 53 48 49 53 63 57 50 58 60 60 59 57 58 64 68 75 75 76 75 75 79 84 81 86 86
100 100 98 95 63 75 83 84 82 80 79 80 84 79 93 90 95 97 98 92 96 83 71 66 79 70 63 59 56 53 55 58 56 62 64 59 52 63 62 61 64 70 74 75 86 77 88 89 85 88 93 97 97 99
100 100 98 77 78 84 84 88 78 78 75 84 82 79 89 92 96 94 88 90 81 66 62 66 56 54 58 62 58 61 61 61 62 65 67 70 72 66 65 68 72 80 82 90 84 92 96 90 90 92 94 94 95 99
98 98 96 68 80 85 95 84 81 75 77 86 83 84 86 88 87 85 89 72 67 59 57 58 57 62 60 57 63 63 64 67 63 60 67 71 71 73 80 77 80 90 90 80 83 95 97 92 93 96 94 95 94 92
85 94 94 88 81 97 86 88 81 85 85 83 79 77 80 86 87 91 90 80 66 64 66 62 63 56 55 63 58 48 52 64 63 66 73 75 70 65 68 72 76 86 89 89 98 99 98 98 95 91 88 93 92 92
90 93 81 94 87 88 86 86 88 86 97 92 90 83 88 89 93 96 87 66 72 72 68 60 61 56 56 51 51 52 51 64 60 62 60 74 73 80 77 75 85 92 97 100 97 96 92 94 94 93 91 92 92 94
90 92 82 86 89 79 88 92 88 91 92 98 93 86 88 87 86 73 62 70 81 67 94 87 74 57 51 51 55 52 58 73 76 74 69 73 80 88 94 92 88 87 97 100 100 98 90 90 92 91 92 96 98 95
91 92 82 78 73 78 89 90 85 86 98 97 85 93 86 83 75 60 59 80 74 89 92 89 87 76 73 72 75 80 83 82 91 87 89 95 97 99 100 99 94 96 99 100 100 100 96 93 93 94 93 98 97 99
87 83 94 93 90 81 87 87 89 94 82 73 80 90 82 74 64 80 85 94 97 98 92 90 96 96 93 100 100 100 100 100 100 100 99 99 99 100 98 99 99 97 98 98 97 100 100 100 100 100 99 99 99 100
90 90 87 96 94 95 87 79 79 71 65 73 77 71 72 76 93 91 92 97 96 93 89 90 89 98 93 94 94 100 100 99 94 93 92 91 94 98 96 96 97 99 99 100 98 97 97 98 100 100 100 100 100 100
91 87 92 94 98 94 83 81 85 85 74 73 71 71 79 90 96 97 94 92 92 94 98 98 98 97 94 93 90 90 100 100 98 95 91 92 93 99 99 99 97 96 96 98 100 100 98 95 95 100 100 100 100 100
88 88 90 89 90 87 91 94 92 93 90 86 91 83 79 88 93 99 100 100 96 96 94 93 92 94 93 89 91 89 88 99 98 97 96 99 99 98 96 95 95 93 97 100 100 100 100 100 100 100 100 100 100 100
90 89 91 97 93 88 86 88 89 91 85 78 79 87 91 88 90 85 100 99 92 92 100 100 97 96 100 100 100 100 100 100 100 99 96 96 96 96 95 95 95 93 99 100 100 100 100 100 100 100 100 100 100 100
92 92 92 95 91 73 78 79 71 76 78 81 90 90 90 87 90 87 100 100 100 100 100 100 100 100 100 100 100 100 100 100 97 96 96 96 96 96 96 95 94 93 97 100 100 100 100 100 100 100 100 100 100 100

GFSWCAN_925_rhum_027.txt.gz
RH
100 100 94 94 90 87 83 81 79 76 78 74 69 64 59 59 54 66 73 49 60 62 54 50 45 48 47 40 70 56 59 66 84 99 100 94 100 58 54 36 60 74 94 97 86 96 85 34 38 66 59 51 67 65
100 100 100 98 93 89 84 86 87 84 86 84 76 69 64 59 58 61 54 51 66 47 60 73 73 70 60 50 38 57 44 56 55 78 94 92 99 97 86 65 33 52 48 58 60 58 37 36 46 55 55 64 75 86
100 100 100 100 98 92 86 88 91 92 91 90 84 77 70 63 57 65 65 72 57 90 58 57 60 70 67 69 63 57 62 43 53 56 79 92 99 76 100 77 49 40 33 66 60 43 38 44 50 61 64 72 77 75
98 96 100 100 100 98 92 89 91 93 95 94 90 83 78 70 63 70 66 78 63 76 100 68 65 62 71 70 65 62 55 64 58 62 99 100 97 52 73 56 54 48 41 48 58 46 51 73 80 80 77 78 69 45
89 92 94 99 100 100 100 92 90 94 94 95 93 87 82 76 70 80 82 86 80 59 90 77 61 67 65 66 65 63 57 60 76 100 100 96 69 73 71 75 70 47 48 66 80 74 83 90 86 79 77 50 38 36
78 80 91 97 98 100 99 100 94 95 98 96 94 91 87 82 78 71 59 81 79 74 92 96 67 64 62 62 64 62 58 71 71 87 96 71 50 62 100 90 48 42 42 60 61 78 86 84 81 65 51 40 36 34
81 87 90 92 94 92 96 100 98 93 100 99 95 92 93 88 95 68 62 84 78 76 98 98 87 68 67 64 64 63 82 82 72 74 99 78 70 64 100 92 46 56 55 62 69 76 94 86 79 54 42 36 30 26
86 87 89 88 88 86 88 92 98 96 95 100 100 100 99 97 93 82 86 84 84 79 86 99 94 88 69 88 96 75 90 93 88 79 98 92 75 95 100 70 59 55 57 66 72 72 60 57 44 37 28 25 25 25
89 92 90 85 81 82 81 85 95 98 99 100 100 100 100 100 100 96 83 85 81 82 98 98 100 99 69 83 92 94 88 100 95 100 100 97 100 99 78 67 64 60 64 75 54 41 36 32 28 26 25 26 29 30
92 92 93 89 82 81 80 79 90 99 100 100 100 100 100 99 97 99 99 100 99 100 100 100 84 98 71 97 100 96 100 100 100 99 85 100 98 77 62 58 59 62 64 53 52 39 34 33 30 29 30 32 35 38
94 99 98 99 99 91 97 86 90 100 100 100 99 100 100 100 91 98 100 100 100 100 100 93 86 98 85 98 100 100 100 100 99 94 98 100 81 68 60 59 55 53 47 32 32 31 28 28 30 33 37 42 47 49
86 94 94 94 99 91 95 99 100 97 100 99 98 98 96 96 100 100 100 100 100 100 100 100 99 97 100 95 100 100 100 100 99 68 97 87 60 57 53 48 45 41 36 32 29 28 29 30 35 42 48 49 51 62
86 87 90 95 100 97 92 88 92 98 95 93 93 100 100 100 100 100 99 100 100 99 99 100 100 100 100 99 100 100 100 100 74 96 77 58 59 53 48 45 43 39 37 39 30 29 31 38 47 63 64 71 71 74
83 91 90 98 99 100 94 90 89 89 87 100 100 99 100 100 100 100 100 98 99 100 100 100 100 100 100 100 100 100 99 81 92 88 80 61 57 51 45 41 38 38 63 50 46 41 46 66 76 72 68 66 75 87
82 88 90 100 99 100 100 88 81 81 94 100 100 98 98 100 100 100 100 100 99 98 99 100 100 97 100 100 100 98 98 90 72 69 70 54 55 53 50 49 41 43 69 63 40 44 55 64 79 83 82 82 87 86
90 92 96 96 100 97 93 90 86 78 95 100 100 99 100 100 100 100 100 100 96 96 95 92 100 100 99 94 94 96 92 76 72 68 55 54 58 53 48 43 42 39 42 43 44 48 54 63 74 76 76 79 79 84
94 98 93 97 100 99 97 92 90 98 99 100 98 99 98 100 100 100 100 100 94 99 100 96 97 98 92 94 91 70 81 76 62 62 53 52 50 43 36 39 47 50 54 52 51 52 56 64 71 84 92 70 64 70
97 97 95 92 82 77 72 82 87 85 91 77 88 99 89 94 100 100 99 91 97 82 75 76 63 84 83 79 68 68 59 57 55 54 41 39 41 43 44 45 44 45 47 50 58 67 71 77 81 62 52 56 63 66
99 98 100 93 92 91 83 92 75 81 81 77 84 82 88 96 91 94 98 92 80 71 76 76 89 71 62 47 64 64 61 56 48 42 42 41 45 49 53 50 53 55 55 55 56 58 57 56 59 62 63 70 77 81
96 99 100 97 95 95 97 87 70 63 73 74 75 79 86 89 95 100 100 91 76 97 98 88 70 57 52 44 41 44 42 46 42 52 50 42 39 46 54 54 53 51 52 53 57 61 64 62 57 62 73 82 92 93
100 100 96 85 98 90 74 73 76 68 67 70 71 66 87 85 91 92 96 87 98 84 69 58 67 62 56 54 50 46 48 49 47 49 52 51 44 46 48 50 53 55 58 62 80 71 75 80 76 80 90 95 94 96
100 100 99 97 98 87 80 79 69 68 68 74 75 67 88 92 93 90 81 92 80 60 52 54 49 46 47 52 51 52 53 54 53 52 54 56 59 57 55 54 56 62 67 78 75 81 92 86 90 96 95 92 90 92
100 99 98 83 94 97 94 75 83 65 82 86 76 83 85 84 80 74 85 67 61 50 49 47 48 53 54 51 51 52 53 54 50 46 50 54 57 60 66 65 65 80 90 79 73 78 84 95 98 95 93 90 92 93
100 98 98 93 82 93 92 86 69 72 76 76 75 80 74 78 77 81 79 64 52 46 51 50 51 48 45 50 49 39 38 42 46 46 51 58 61 56 53 54 57 68 76 85 93 92 90 94 91 91 94 93 93 94
97 95 95 91 83 84 83 84 84 78 83 82 80 79 85 81 84 78 79 51 77 88 85 65 53 46 45 43 41 43 47 55 57 58 54 60 63 66 66 62 62 71 81 87 99 99 92 90 88 94 92 95 92 88
91 91 85 82 84 76 76 81 82 80 78 85 84 78 86 82 81 71 51 81 84 78 91 89 80 70 59 58 63 64 71 78 81 76 65 69 89 99 99 92 86 82 86 90 95 96 95 90 87 92 91 91 95 93
81 86 79 66 62 69 82 81 71 78 82 78 78 85 83 76 67 56 70 81 76 87 87 84 86 81 78 75 83 91 96 96 99 99 97 95 96 97 99 98 96 99 99 97 96 99 97 90 91 88 89 91 96 98
81 76 84 87 78 70 78 75 80 78 76 60 70 82 75 65 68 82 79 86 87 84 78 78 82 86 86 89 90 89 93 96 90 81 78 80 98 98 98 95 96 96 97 96 97 96 98 98 98 94 94 96 96 99
84 78 77 90 86 86 80 74 72 60 54 65 77 69 78 79 84 84 87 88 87 86 83 84 86 90 86 86 85 96 95 93 88 84 83 84 84 90 94 99 100 99 98 97 96 96 96 98 98 100 99 99 98 99
88 80 83 84 87 81 86 78 87 92 66 75 72 71 76 86 91 91 89 88 88 89 90 89 88 86 85 84 82 84 96 98 100 95 89 87 90 95 99 100 100 100 99 99 98 98 96 98 96 97 95 96 96 93
79 81 85 83 85 84 90 94 96 96 95 89 92 91 86 86 90 92 94 92 90 90 88 86 85 87 87 86 87 86 83 90 99 100 100 100 100 100 100 100 100 100 100 99 98 98 98 97 93 92 93 94 96 97
85 84 83 84 83 88 91 91 91 90 88 83 82 82 82 79 82 82 98 94 87 87 91 91 90 90 96 96 97 98 97 96 97 100 100 100 100 100 100 100 100 100 100 99 98 98 98 96 95 94 92 96 99 100
87 85 85 87 82 78 82 75 62 65 74 76 81 79 83 82 83 83 94 99 97 96 96 98 99 98 99 99 99 97 95 96 98 100 100 100 100 100 100 100 98 96 100 99 98 98 98 97 98 99 100 100 100 100

GFSWCAN_925_rhum_033.txt.gz
RH
94 90 83 79 77 75 71 67 68 71 73 70 64 56 54 52 63 53 47 66 65 90 73 73 73 71 58 76 87 73 74 84 98 95 96 98 96 86 66 67 84 85 94 92 84 85 95 50 56 62 73 81 78 76
96 90 84 82 81 80 77 74 74 75 77 75 67 58 52 50 58 59 46 58 56 86 86 68 65 65 69 68 73 69 63 81 92 98 99 100 96 100 96 79 54 80 78 90 78 80 60 54 64 78 77 82 77 71
98 90 89 89 86 84 81 79 78 80 81 78 72 64 55 49 60 60 55 63 58 98 84 78 79 64 52 60 60 80 83 65 78 84 95 92 98 95 94 90 55 49 53 77 72 55 64 83 79 75 77 83 77 69
100 94 90 88 87 86 84 83 83 84 85 82 77 70 61 58 68 63 64 71 60 96 100 86 60 64 61 61 58 58 69 74 86 94 100 99 99 82 95 73 74 64 56 58 66 72 86 84 83 84 83 79 68 60
100 100 97 94 89 87 85 89 91 89 88 85 81 74 67 70 73 62 60 71 74 77 98 93 61 60 59 62 59 61 65 82 96 100 100 99 96 88 95 87 96 66 66 80 84 70 77 91 89 84 84 68 61 44
100 100 100 100 95 91 87 90 93 95 94 91 86 78 71 72 75 76 90 69 67 70 98 98 71 66 57 58 60 78 78 91 92 100 99 96 81 86 96 99 69 53 49 60 84 86 89 92 89 76 70 57 40 33
98 99 100 100 100 98 93 90 94 95 98 96 91 84 77 72 73 79 86 82 73 67 100 97 93 78 64 64 82 88 86 95 90 97 100 94 90 93 100 99 73 56 70 76 79 84 92 85 86 68 59 45 28 27
88 94 98 99 100 100 99 97 100 100 100 98 93 87 83 76 72 82 74 80 80 82 98 99 99 96 71 98 100 91 100 96 97 99 100 96 96 99 96 86 70 57 75 80 82 74 77 75 64 61 52 30 36 38
86 82 88 91 92 94 100 100 99 100 99 98 89 92 85 79 91 91 81 76 75 82 96 98 99 95 81 97 99 96 99 100 99 100 100 96 100 97 90 79 69 73 77 83 74 62 60 61 42 36 34 38 41 48
87 84 84 82 77 80 86 94 99 99 100 100 98 94 100 100 95 83 86 98 100 100 100 98 92 97 88 100 100 98 100 100 100 99 98 100 99 90 84 65 67 73 69 64 66 54 49 44 43 40 39 51 53 56
90 90 86 81 79 83 80 90 97 100 100 100 99 100 99 99 92 100 100 100 100 100 100 98 94 95 91 99 100 100 100 100 95 92 98 99 98 88 74 76 75 70 63 58 42 36 36 39 43 52 56 60 57 57
89 89 82 79 83 99 98 99 100 95 99 98 94 99 94 94 100 100 100 100 100 99 100 100 100 98 100 97 100 100 100 99 96 96 100 94 89 77 72 73 69 65 49 36 34 38 39 41 49 52 52 56 61 62
90 94 90 89 96 100 100 98 96 99 96 93 93 100 100 100 100 100 95 100 100 99 100 100 100 100 100 100 100 100 100 98 99 100 96 96 74 68 66 60 53 42 39 39 43 43 40 41 41 45 54 57 61 68
90 92 99 93 91 91 88 86 89 90 83 99 100 99 100 99 99 99 99 99 100 100 100 100 99 100 100 100 99 99 99 99 99 98 96 94 79 61 58 57 56 54 57 51 50 50 49 48 49 53 58 58 66 75
95 98 98 100 93 87 83 78 74 73 89 99 100 99 99 99 100 100 99 100 100 100 100 100 100 99 100 99 100 99 98 98 99 99 100 94 73 68 66 64 64 63 68 66 56 53 51 51 55 56 55 62 70 75
97 94 98 99 94 87 77 80 81 77 94 98 98 99 99 99 100 100 100 100 100 100 100 100 100 100 99 99 99 98 98 98 99 100 94 78 75 72 71 63 53 47 48 51 52 55 57 56 57 62 65 64 66 68
85 94 96 98 91 86 86 89 72 95 94 99 97 98 100 100 100 100 100 100 99 100 99 100 98 98 100 98 98 100 99 99 98 94 86 75 72 68 56 52 52 56 57 56 58 57 59 58 60 63 73 62 64 68
90 92 98 97 84 92 84 84 96 96 90 99 99 99 97 100 100 100 100 100 100 98 97 97 94 97 97 97 98 97 96 94 93 89 72 61 53 53 50 53 52 56 58 56 55 56 58 60 66 69 67 67 69 70
93 96 92 88 90 87 88 84 83 92 92 96 96 96 94 99 99 100 100 94 85 88 92 96 92 92 91 91 95 96 95 93 79 67 64 49 47 50 52 53 54 55 56 58 61 63 62 62 64 62 64 68 78 85
88 93 97 90 90 96 96 92 72 88 93 94 87 96 98 99 99 100 100 100 99 95 97 94 94 96 93 86 73 85 85 75 76 88 84 66 53 52 54 58 61 60 62 61 61 62 64 66 65 64 69 76 72 78
84 95 99 97 92 95 91 96 89 81 84 93 95 91 93 97 97 96 100 99 98 99 94 92 94 91 65 61 58 59 64 60 77 86 92 88 59 55 54 54 59 62 66 68 70 70 70 72 64 75 84 88 86 93
99 98 99 99 99 94 93 75 92 85 91 87 92 92 88 89 88 93 81 96 98 91 80 86 72 74 75 72 67 62 60 58 57 55 53 56 84 74 68 63 68 71 71 74 75 79 76 69 80 88 76 90 97 92
100 98 99 100 99 93 95 79 83 83 80 94 92 91 89 85 93 88 80 90 91 70 64 65 61 55 61 57 55 74 76 66 67 77 82 77 73 71 77 82 82 86 90 87 86 88 87 84 81 89 92 100 98 94
99 100 99 99 99 97 92 90 88 89 91 90 95 89 94 94 93 94 94 94 98 87 89 90 80 74 68 76 97 97 94 90 91 90 86 90 93 92 88 84 83 85 98 100 99 95 95 96 99 100 100 98 96 97
99 98 99 98 98 97 89 88 89 92 90 89 83 92 98 95 97 94 88 99 97 97 94 89 86 83 88 92 86 89 94 93 94 90 85 86 92 94 91 92 94 98 89 100 98 99 98 97 99 98 98 98 96 97
98 98 98 96 96 94 90 92 91 90 90 87 88 97 94 95 92 90 95 98 98 95 96 94 90 92 83 88 89 91 99 92 85 92 90 94 99 99 96 94 92 91 92 100 100 98 99 98 98 98 98 95 97 98
97 97 92 76 84 89 92 91 90 90 89 90 95 96 95 97 91 95 93 95 94 94 91 87 84 88 92 89 82 89 94 79 84 87 76 94 94 91 96 99 96 100 94 100 99 100 98 98 98 98 98 94 98 98
89 86 92 90 90 91 87 90 90 89 87 89 90 90 91 90 97 95 94 96 86 94 96 88 80 90 92 94 97 97 87 77 67 61 58 78 77 82 80 88 100 94 88 100 100 100 100 99 98 98 97 96 96 97
93 96 89 95 90 92 87 88 88 93 94 89 90 94 98 90 97 96 97 95 94 91 82 84 86 86 78 84 78 92 96 84 82 94 94 94 90 88 98 100 100 96 93 100 95 93 97 97 97 96 97 96 96 96
97 96 93 89 92 92 100 99 99 91 90 99 90 89 88 95 98 97 95 89 89 96 96 94 97 87 88 90 94 86 96 95 79 89 100 100 96 100 96 91 100 99 100 100 96 87 83 96 90 96 95 94 96 96
95 95 82 83 95 99 98 88 88 89 84 93 93 94 95 98 95 88 91 98 95 82 88 91 94 93 87 90 99 96 94 96 98 97 92 92 99 98 96 97 90 98 100 95 91 97 96 98 96 96 96 96 96 96
84 96 82 88 98 93 77 77 72 75 95 80 98 97 100 98 99 97 88 97 94 94 94 92 94 96 89 100 100 80 100 97 88 86 100 100 100 100 89 89 97 100 100 94 96 96 99 96 96 97 97 97 98 98
87 84 89 90 92 88 91 90 84 83 88 92 97 96 98 98 99 99 88 82 85 88 91 91 87 93 100 99 90 99 89 76 93 98 97 100 93 87 89 98 99 100 96 92 100 100 97 98 97 98 98 99 99 100